This is the latest recevied weather packets stored in our database for station/object N4AR. If no packets are shown the sender has not sent any weather packets the latest 10 day(s).
| Time | Temp. | Humidity | Pressure | Rain* | Wind** | Luminosity | Snow |
|---|---|---|---|---|---|---|---|
| 1777856056 | 9.44° C | 67% | 1017 hPa | 0 mm | - | 0 W/m² | - |
| 1777855754 | 10° C | 66% | 1016.8 hPa | 0 mm | - | 0 W/m² | - |
| 1777855452 | 10° C | 65% | 1016.9 hPa | 0 mm | - | 0 W/m² | - |
| 1777855148 | 10° C | 64% | 1016.8 hPa | 0 mm | - | 0 W/m² | - |
| 1777854844 | 10.56° C | 63% | 1016.9 hPa | 0 mm | - | 0 W/m² | - |
| 1777854541 | 10.56° C | 61% | 1016.9 hPa | 0 mm | - | 0 W/m² | - |
| 1777854238 | 10.56° C | 60% | 1016.7 hPa | 0 mm | - | 0 W/m² | - |
| 1777853935 | 11.11° C | 59% | 1016.6 hPa | 0 mm | - | 0 W/m² | - |
| 1777853633 | 11.67° C | 58% | 1016.8 hPa | 0 mm | - | 0 W/m² | - |
| 1777853329 | 12.22° C | 56% | 1016.3 hPa | 0 mm | - | 1 W/m² | - |
| 1777853027 | 12.78° C | 54% | 1016.3 hPa | 0 mm | - | 1 W/m² | - |
| 1777852724 | 12.78° C | 53% | 1016.5 hPa | 0 mm | - | 2 W/m² | - |
| 1777852422 | 13.33° C | 50% | 1016.3 hPa | 0 mm | - | 4 W/m² | - |
| 1777852119 | 13.89° C | 49% | 1016.3 hPa | 0 mm | - | 6 W/m² | - |
| 1777851816 | 13.89° C | 47% | 1016.3 hPa | 0 mm | - | 8 W/m² | - |
| 1777851514 | 14.44° C | 45% | 1016.3 hPa | 0 mm | - | 10 W/m² | - |
| 1777851210 | 15° C | 45% | 1016.3 hPa | 0 mm | - | 13 W/m² | - |
| 1777850906 | 15° C | 43% | 1016.2 hPa | 0 mm | - | 15 W/m² | - |
| 1777850604 | 15.56° C | 43% | 1016.3 hPa | 0 mm | - | 18 W/m² | - |
| 1777850301 | 16.11° C | 39% | 1016.3 hPa | 0 mm | - | 20 W/m² | - |
| 1777849998 | 16.67° C | 35% | 1016.1 hPa | 0 mm | - | 22 W/m² | - |
| 1777849694 | 16.67° C | 34% | 1016.3 hPa | 0 mm | - | 24 W/m² | - |
| 1777849391 | 17.22° C | 33% | 1016 hPa | 0 mm | - | 29 W/m² | - |
| 1777849088 | 17.78° C | 33% | 1016 hPa | 0 mm | - | 53 W/m² | - |
| 1777848784 | 17.78° C | 29% | 1016.1 hPa | 0 mm | - | 46 W/m² | - |
* Rain latest hour (hover to see other rain measurements)
** Current wind speed in m/s (hover to see current wind gust speed)